Date,TemperatureHighF,TemperatureAvgF,TemperatureLowF,DewpointHighF,DewpointAvgF,DewpointLowF,HumidityHigh,HumidityAvg,HumidityLow,PressureMaxIn,PressureMinIn,WindSpeedMaxMPH,WindSpeedAvgMPH,GustSpeedMaxMPH,PrecipitationSumIn
2013-1-1,76.7,72.8,67.7,65.1,61.9,59.2,80,69,62,30.10,29.96,9,1,19,0.00
2013-1-2,79.3,70.9,62.4,68.7,65.3,59.9,95,83,69,30.00,29.90,8,1,15,0.00
2013-1-3,79.4,73.1,67.1,70.3,67.9,65.0,95,85,71,30.03,29.93,9,0,17,0.02
2013-1-4,79.0,72.2,66.7,72.0,68.7,65.2,96,89,75,30.13,30.01,7,0,12,0.00
2013-1-5,75.7,69.6,66.7,70.4,67.6,65.4,97,94,82,30.15,30.06,7,0,11,0.16
2013-1-6,79.6,74.4,66.7,72.4,70.3,65.5,97,88,78,30.09,29.97,9,1,16,0.01
2013-1-7,74.7,70.8,67.7,69.9,68.4,66.5,96,92,84,30.07,29.97,2,0,14,0.45
2013-1-8,80.6,76.2,71.9,74.2,71.9,70.0,94,87,80,30.10,29.97,6,1,18,0.28
2013-1-9,80.4,77.1,74.8,72.9,71.5,70.0,92,83,78,30.18,30.06,11,2,20,0.00
2013-1-10,79.1,76.5,74.9,70.3,68.0,65.4,82,75,65,30.20,30.09,13,3,20,0.00
2013-1-11,79.1,76.0,74.4,70.4,68.8,67.0,83,79,73,30.15,30.06,12,2,18,0.00
2013-1-12,78.9,75.4,73.4,70.0,68.4,66.1,87,79,72,30.08,30.00,11,2,15,0.01
2013-1-13,79.1,75.5,73.3,69.2,66.9,65.4,81,75,66,30.02,29.97,11,2,16,0.00
2013-1-14,78.5,75.1,72.1,68.3,65.6,63.0,81,73,66,30.07,30.01,9,1,15,0.00
2013-1-15,76.9,74.7,72.3,68.6,67.2,64.2,82,78,74,30.01,29.73,8,1,14,0.00
2013-1-16,79.4,74.5,66.0,70.9,67.9,62.8,92,80,71,29.78,29.68,8,1,18,0.08
2013-1-17,79.1,70.5,61.0,72.0,67.1,55.7,97,89,78,29.72,29.61,17,1,27,0.67
2013-1-18,70.7,63.0,52.4,61.5,54.4,46.7,84,74,64,29.84,29.72,11,2,21,0.00
2013-1-19,71.7,68.2,63.7,67.7,64.1,59.8,96,87,69,29.81,29.68,5,0,12,0.61
2013-1-20,77.1,70.1,64.2,70.0,66.8,63.3,98,90,75,29.69,29.55,5,0,12,0.02
2013-1-21,77.9,71.7,66.2,71.1,67.8,64.7,97,88,77,29.54,29.42,8,0,14,0.01
2013-1-22,74.7,68.3,62.5,64.2,60.0,54.2,95,76,59,29.59,29.41,14,3,21,0.00
2013-1-23,73.4,68.2,61.6,59.0,55.9,53.4,82,65,53,29.63,29.55,7,1,17,0.00
2013-1-24,73.9,65.7,59.9,57.5,54.3,48.4,85,68,51,29.55,29.45,7,1,14,0.00
2013-1-25,75.1,67.2,59.9,62.3,56.5,51.2,81,69,56,29.48,28.51,4,0,15,0.00
2013-1-26,75.8,68.3,60.0,62.1,59.3,53.2,92,74,58,28.48,28.21,8,1,13,0.00
2013-1-27,76.5,70.7,63.5,64.6,61.9,59.1,88,75,60,28.27,28.19,12,2,16,0.00
2013-1-28,78.2,74.7,72.1,67.3,65.1,62.7,79,72,65,28.23,28.15,11,2,18,0.00
2013-1-29,77.5,74.5,73.0,70.1,67.8,65.7,84,80,77,28.14,28.05,10,2,20,0.00
2013-1-30,77.8,74.3,72.1,69.2,67.0,64.2,89,78,71,28.04,27.89,17,3,23,0.00
2013-1-31,72.5,66.7,59.8,70.4,59.8,41.9,96,80,50,28.04,27.84,9,2,25,0.00
2013-2-1,71.6,62.5,54.0,56.9,50.0,40.7,75,64,54,28.08,27.98,11,3,25,0.00
2013-2-2,71.9,64.0,56.2,55.0,50.1,38.3,83,61,51,28.04,27.96,6,1,14,0.00
2013-2-3,73.0,63.5,57.2,54.9,52.8,46.5,89,71,39,27.98,27.90,10,1,18,0.00
2013-2-4,71.7,66.0,54.4,56.1,54.6,47.6,80,67,57,27.92,27.87,1,0,11,0.00
2013-2-5,75.7,67.4,56.8,64.3,59.5,53.3,90,77,60,27.90,27.83,8,1,15,0.00
2013-2-6,77.9,70.7,62.5,67.7,63.7,60.6,95,80,67,27.94,27.85,8,1,13,0.00
2013-2-7,78.4,74.2,70.1,67.9,65.5,63.1,82,75,67,27.92,27.82,11,2,16,0.00
2013-2-8,81.3,74.4,69.5,71.0,68.6,65.1,94,83,66,27.86,27.76,13,1,18,0.00
2013-2-9,77.2,70.8,65.4,68.3,64.7,61.0,95,82,71,27.99,27.82,8,2,18,0.00
2013-2-10,74.7,72.0,69.9,64.4,62.6,59.0,81,73,66,28.03,27.93,14,4,20,0.01
2013-2-11,77.1,73.4,70.6,66.5,64.7,62.2,80,74,70,28.02,27.94,15,2,17,0.00
2013-2-12,80.4,74.7,69.2,70.5,68.2,65.4,89,81,69,27.93,27.82,18,2,23,0.00
2013-2-13,80.9,75.2,69.0,73.4,70.8,66.8,95,87,78,27.83,27.74,11,2,23,0.00
2013-2-14,77.5,70.9,63.1,72.3,68.2,61.6,96,91,82,27.83,27.72,12,1,26,0.65
2013-2-15,72.2,66.7,63.4,67.5,64.8,62.2,97,94,83,27.82,27.76,5,0,13,0.74
2013-2-16,71.8,64.9,55.7,63.7,57.3,46.0,97,78,49,27.86,27.68,17,4,29,0.01
2013-2-17,57.9,51.6,44.8,46.1,30.5,20.6,73,47,26,28.05,27.83,17,5,26,0.00
2013-2-18,68.1,59.5,47.4,58.5,46.6,34.7,73,63,52,28.02,27.95,12,4,20,0.00
2013-2-19,75.6,71.6,67.8,67.1,62.1,54.7,89,72,62,27.95,27.88,12,2,20,0.00
2013-2-20,76.4,70.3,64.5,68.0,65.0,60.2,96,84,61,27.91,27.83,11,1,14,0.00
2013-2-21,79.0,74.4,70.8,69.1,67.2,64.9,87,79,70,27.89,27.80,9,1,16,0.00
2013-2-22,79.9,75.7,72.9,72.4,70.4,67.0,89,84,78,27.91,27.83,16,3,24,0.00
2013-2-23,80.0,76.4,73.3,73.0,71.2,68.9,91,84,78,27.88,27.75,15,4,21,0.00
2013-2-24,83.4,76.4,71.2,74.9,71.9,69.4,97,87,66,27.80,27.73,12,1,17,0.00
2013-2-25,81.1,75.6,70.1,74.2,71.4,67.3,95,87,78,27.73,27.64,13,2,25,0.00
2013-2-26,81.7,78.3,75.2,74.3,72.4,71.1,90,82,72,27.71,27.61,11,2,23,0.00
2013-2-27,76.9,70.3,64.8,73.3,66.4,63.0,96,88,69,27.77,27.67,7,0,12,0.26
2013-2-28,68.7,63.9,59.6,63.6,55.1,47.0,96,74,46,27.77,27.69,10,2,18,0.00
2013-3-1,64.1,62.0,58.6,57.7,52.4,47.7,83,71,60,27.74,27.66,9,1,15,0.00
2013-3-2,63.5,57.6,53.5,49.6,43.2,36.6,75,59,47,27.77,27.68,20,3,29,0.00
2013-3-3,60.7,54.4,49.9,47.3,43.4,40.5,87,67,51,27.86,27.66,13,3,22,0.02
2013-3-4,64.4,53.9,42.6,44.6,39.1,34.9,76,59,37,27.92,27.80,13,3,21,0.00
2013-3-5,72.4,62.8,50.9,58.1,53.5,45.0,88,73,59,27.90,27.82,9,2,17,0.00
2013-3-6,76.5,65.1,53.6,64.2,52.6,30.7,94,68,29,27.85,27.72,14,4,28,0.01
2013-3-7,68.7,58.7,47.6,55.5,45.8,36.5,86,63,44,27.93,27.78,18,1,18,0.00
2013-3-8,72.7,63.6,55.1,54.9,52.0,46.9,88,68,43,27.91,27.82,8,1,14,0.00
2013-3-9,73.2,65.5,56.6,58.7,54.5,50.2,86,68,56,27.92,27.80,7,1,15,0.00
2013-3-10,73.5,70.0,67.0,61.5,57.2,54.3,75,64,56,27.89,27.81,12,3,16,0.00
2013-3-11,76.2,72.1,69.3,64.0,61.6,58.7,76,70,61,27.87,27.75,10,2,20,0.00
2013-3-12,77.6,74.0,70.8,70.5,66.7,62.8,85,78,69,27.77,27.67,13,3,26,0.00
2013-3-13,74.5,66.1,57.4,66.1,56.9,48.1,91,74,47,27.87,27.73,12,3,20,0.00
2013-3-14,69.1,61.4,55.0,53.5,48.4,41.7,84,64,37,27.93,27.80,16,4,23,0.00
2013-3-15,70.8,62.6,53.8,54.9,50.6,44.8,79,66,51,27.94,27.87,9,1,17,0.00
2013-3-16,73.2,65.4,55.8,57.6,55.0,53.2,92,71,53,27.92,27.84,8,1,16,0.00
2013-3-17,74.6,68.6,61.2,62.5,59.1,55.0,86,72,61,27.87,27.79,11,1,15,0.00
2013-3-18,77.3,72.6,67.5,70.2,66.2,61.7,95,81,73,27.83,27.75,9,2,22,0.09
2013-3-19,77.6,72.5,68.2,69.8,68.2,66.5,96,87,69,27.78,27.60,14,1,23,0.00
2013-3-20,79.5,72.0,64.8,70.3,66.5,60.8,97,84,61,27.72,27.61,8,1,24,0.01
2013-3-21,72.8,66.5,60.6,61.6,55.9,48.9,91,70,46,27.73,27.58,11,1,18,0.00
2013-3-22,74.7,68.7,55.6,70.1,61.0,52.7,92,78,62,27.75,27.63,7,1,17,0.00
2013-3-23,82.1,76.8,72.2,74.7,72.5,70.2,96,87,75,27.74,27.60,11,2,23,0.07
2013-3-24,88.0,79.6,73.7,73.7,72.3,68.6,95,80,58,27.65,27.48,25,4,33,0.01
2013-3-25,77.0,73.4,66.3,73.1,60.9,43.6,94,68,37,27.73,27.51,8,2,20,0.02
2013-3-26,65.6,60.6,53.5,44.9,39.3,34.2,64,46,33,27.90,27.72,14,5,26,0.00
2013-3-27,66.5,56.6,46.2,49.0,43.2,35.9,72,61,46,27.93,27.82,11,3,18,0.00
2013-3-28,69.7,61.4,52.3,51.7,45.7,34.2,74,58,31,27.96,27.83,10,2,14,0.00
2013-3-29,73.0,65.5,57.4,54.6,50.7,44.1,70,59,47,27.96,27.87,7,1,16,0.00
2013-3-30,72.6,68.5,63.5,56.2,53.4,51.0,69,59,48,27.95,27.88,9,1,15,0.00
2013-3-31,78.1,72.7,68.0,67.4,62.9,55.7,81,71,64,27.91,27.79,8,2,19,0.00
2013-4-1,82.1,75.2,71.3,71.6,68.0,63.6,89,79,56,27.78,27.71,9,2,21,0.10
2013-4-2,78.7,72.9,65.9,68.1,66.3,64.3,96,81,65,27.82,27.70,11,2,12,0.01
2013-4-3,80.7,76.1,72.2,70.6,69.0,66.9,85,79,71,27.79,27.74,8,1,17,0.00
2013-4-4,80.6,75.2,68.7,73.1,70.4,66.5,95,86,77,27.78,27.66,13,3,22,1.18
2013-4-5,73.3,68.5,65.9,71.1,66.0,63.8,96,92,82,27.71,27.56,8,2,21,0.77
2013-4-6,76.5,68.9,59.4,66.6,61.9,57.3,93,79,63,27.81,27.63,13,3,18,0.00
2013-4-7,77.1,73.3,71.0,65.4,63.8,62.3,78,73,66,27.86,27.73,12,3,20,0.00
2013-4-8,78.8,73.6,64.1,65.2,62.8,60.0,88,70,57,27.87,27.76,7,1,12,0.00
2013-4-9,78.9,75.6,73.0,69.4,67.3,65.3,80,76,70,27.89,27.78,9,2,16,0.00
2013-4-10,81.8,77.2,74.0,73.0,70.7,66.8,86,81,75,27.84,27.77,11,2,17,0.00
2013-4-11,81.5,77.7,74.6,73.7,72.2,70.8,90,83,76,27.78,27.66,13,4,22,0.03
2013-4-12,83.7,79.0,77.1,76.8,74.8,73.5,93,87,78,27.71,27.64,13,4,21,0.22
2013-4-13,80.7,77.0,73.4,75.2,73.5,71.1,95,90,79,27.72,27.63,7,1,15,0.42
2013-4-14,83.2,78.8,74.4,76.0,74.5,72.8,96,87,77,27.71,27.66,8,2,21,0.01
2013-4-15,84.1,77.4,70.4,76.9,73.5,68.2,95,88,76,27.82,27.65,11,1,20,1.46
2013-4-16,83.1,77.4,71.7,76.5,73.2,70.3,98,87,76,27.85,27.74,9,1,15,0.01
2013-4-17,81.2,77.9,75.1,71.4,70.0,68.4,85,77,69,27.83,27.77,11,2,17,0.00
2013-4-18,83.3,79.4,75.9,74.5,71.8,69.2,85,78,71,27.79,27.70,11,2,15,0.00
2013-4-19,83.6,80.5,78.0,74.5,73.3,71.3,86,79,71,27.80,27.72,14,3,24,0.00
2013-4-20,84.1,77.7,72.8,76.4,73.7,70.2,97,88,75,27.80,27.69,14,1,26,1.82
2013-4-21,82.3,76.8,72.1,74.5,72.3,70.2,95,87,76,27.81,27.72,9,1,18,0.01
2013-4-22,81.9,74.2,70.1,72.4,70.4,68.2,96,88,69,27.77,27.68,10,0,18,2.01
2013-4-23,81.3,74.6,67.6,70.5,67.0,63.6,96,79,62,27.83,27.66,17,3,26,0.01
2013-4-24,80.5,76.6,73.3,67.3,64.8,62.2,74,67,61,27.87,27.75,6,1,15,0.00
2013-4-25,79.4,76.0,72.7,64.6,63.4,61.7,72,65,59,27.94,27.80,7,2,14,0.00
2013-4-26,79.9,75.7,71.1,67.8,65.1,61.9,76,70,64,27.95,27.83,8,2,15,0.00
2013-4-27,79.7,76.4,73.4,68.4,65.3,62.5,77,69,63,27.92,27.83,9,2,19,0.00
2013-4-28,80.1,76.6,73.7,67.0,65.0,63.4,77,68,59,27.84,27.73,9,2,16,0.00
2013-4-29,81.0,77.3,74.9,72.3,68.8,64.1,83,76,67,27.77,27.68,9,1,18,0.01
2013-4-30,78.3,75.8,70.3,72.4,70.8,67.8,94,85,77,27.72,27.64,7,1,17,0.25
2013-5-1,82.8,75.5,70.6,74.0,71.3,68.5,95,87,73,27.73,27.63,8,0,16,0.60
2013-5-2,76.6,72.6,66.9,72.7,69.9,65.7,97,92,83,27.66,27.52,16,2,25,5.43
2013-5-3,82.2,74.0,68.0,72.0,69.2,67.1,97,86,64,27.52,27.44,8,1,18,0.12
2013-5-4,85.4,76.0,68.1,69.8,68.2,66.0,96,79,56,27.54,27.42,17,3,19,0.01
2013-5-5,79.1,73.4,68.9,67.2,63.0,54.3,92,72,43,27.65,27.48,10,2,19,0.00
2013-5-6,80.2,71.7,61.1,64.3,61.1,56.7,91,71,52,27.71,27.61,9,1,14,0.00
2013-5-7,82.2,72.3,63.2,67.6,62.3,59.0,88,72,49,27.77,27.67,10,2,19,0.00
2013-5-8,81.5,73.3,63.6,67.0,63.0,58.1,90,72,49,27.84,27.73,5,0,13,0.00
2013-5-9,83.7,76.4,67.0,74.1,68.4,60.8,84,77,67,27.85,27.76,7,1,14,0.00
2013-5-10,85.2,79.6,72.3,74.8,72.9,70.1,94,81,64,27.83,27.76,9,2,15,0.08
2013-5-11,84.1,78.8,74.2,75.7,73.5,69.0,95,84,73,27.77,27.69,16,3,22,0.01
2013-5-12,85.0,77.8,71.3,75.4,72.4,68.8,95,84,68,27.75,27.64,10,2,27,1.27
2013-5-13,77.3,73.4,71.2,71.8,70.0,68.2,97,90,76,27.78,27.67,6,0,13,0.02
2013-5-14,79.6,76.5,74.1,67.9,62.4,58.5,76,62,54,27.86,27.73,9,2,20,0.00
2013-5-15,79.3,75.9,73.3,66.2,61.7,58.9,67,62,53,27.88,27.78,11,2,15,0.00
2013-5-16,81.1,76.4,72.0,65.8,62.9,58.1,71,63,55,27.80,27.72,8,2,15,0.00
2013-5-17,83.2,78.2,72.5,74.2,70.4,65.1,94,78,64,27.79,27.69,8,2,16,0.59
2013-5-18,83.7,78.8,73.9,75.0,72.8,70.9,94,83,73,27.79,27.72,10,2,19,0.11
2013-5-19,82.8,79.2,76.3,71.9,70.4,68.7,81,75,66,27.78,27.70,8,1,14,0.00
2013-5-20,81.2,76.7,71.1,74.4,72.5,68.9,95,87,80,27.76,27.50,8,2,18,1.64
2013-5-21,80.4,75.8,71.6,74.2,71.5,69.9,96,87,75,27.54,27.44,11,1,18,0.32
2013-5-22,83.0,75.9,72.0,75.0,72.4,69.3,94,89,76,27.44,27.37,7,0,20,0.94
2013-5-23,90.4,80.7,74.1,76.5,73.7,67.3,95,81,50,27.48,27.37,7,1,16,0.00
2013-5-24,87.0,81.4,76.1,77.1,75.0,73.5,95,82,67,27.51,27.40,7,1,16,0.00
2013-5-25,83.6,79.9,75.3,75.0,69.3,66.1,86,71,57,27.58,27.47,11,3,20,0.00
2013-5-26,82.3,78.8,75.1,69.0,66.6,62.4,79,67,61,27.58,27.51,15,2,18,0.00
2013-5-27,82.9,78.7,74.0,73.3,70.9,65.1,93,78,67,27.57,27.48,9,3,20,0.24
2013-5-28,81.6,78.0,74.0,75.1,73.0,70.5,92,85,78,27.52,27.44,15,3,23,0.17
2013-5-29,79.7,75.8,71.9,74.0,71.8,68.4,95,88,77,27.49,27.43,16,3,29,2.73
2013-5-30,81.6,78.0,73.9,75.1,72.9,71.3,92,85,79,27.48,27.40,13,4,24,0.19
2013-5-31,80.8,77.8,75.5,75.9,74.0,72.0,94,88,83,27.46,27.39,12,2,21,0.92
2013-6-1,82.2,77.0,73.7,76.5,74.4,72.4,96,92,82,27.41,27.33,6,0,13,1.30
2013-6-2,85.8,78.4,72.0,77.3,73.8,71.0,98,87,71,27.38,27.32,11,1,15,0.01
2013-6-3,84.8,78.0,73.8,76.6,74.1,71.9,95,88,70,27.39,27.29,7,1,17,0.53
2013-6-4,83.6,77.2,72.6,77.1,74.0,71.0,97,91,75,27.40,27.31,6,0,11,0.24
2013-6-5,83.1,80.8,79.3,77.6,76.3,74.5,89,86,82,27.37,27.24,11,1,14,0.01
2013-6-6,85.1,79.8,75.2,79.5,76.1,72.0,95,89,81,27.25,27.15,14,3,30,1.03
2013-6-7,88.3,77.4,73.7,77.9,73.9,71.8,96,90,70,27.31,27.16,8,0,22,0.81
2013-6-8,85.8,79.4,74.2,80.1,76.0,72.6,96,90,78,27.42,27.27,6,0,15,0.16
2013-6-9,85.1,81.7,78.5,76.8,75.6,74.6,92,82,74,27.43,27.34,13,2,20,0.00
2013-6-10,85.7,82.6,80.0,77.7,76.5,74.9,87,82,76,27.39,27.32,9,2,16,0.00
2013-6-11,86.5,81.5,77.7,78.1,76.6,74.1,94,86,72,27.37,27.29,9,1,16,0.16
2013-6-12,85.9,80.8,77.5,77.8,76.5,75.4,94,87,75,27.38,27.28,6,0,13,0.00
2013-6-13,86.8,80.0,75.6,77.3,74.8,72.1,96,85,62,27.32,27.20,5,1,12,0.07
2013-6-14,89.9,79.9,74.6,77.7,74.0,71.9,94,83,59,27.22,27.13,10,1,17,0.22
2013-6-15,87.1,81.1,75.5,77.2,75.1,73.5,95,83,68,27.25,27.11,7,1,12,0.00
2013-6-16,87.1,82.1,75.7,78.8,76.2,73.5,94,83,72,27.27,27.19,7,0,14,0.20
2013-6-17,87.4,83.9,80.4,78.4,76.4,74.2,85,79,73,27.26,27.18,8,1,15,0.00
2013-6-18,88.0,83.9,80.6,77.8,76.5,75.3,86,79,68,27.23,27.12,11,2,15,0.00
2013-6-19,87.8,83.4,78.9,77.4,76.4,75.6,91,80,70,27.13,27.06,11,1,15,0.00
2013-6-20,87.1,80.4,70.9,77.4,74.5,68.1,95,83,71,27.16,27.07,19,1,24,2.38
2013-6-21,87.0,83.2,80.7,76.3,75.0,72.5,85,77,68,27.18,27.07,10,1,13,0.00
2013-6-22,86.6,83.0,80.0,76.3,74.8,73.7,83,77,69,27.16,27.07,7,1,14,0.00
2013-6-23,87.2,83.0,79.2,77.1,75.0,72.4,84,77,68,27.14,27.06,9,2,19,0.03
2013-6-24,87.0,83.2,78.2,76.6,74.9,72.5,83,76,70,27.17,27.07,13,3,16,0.01
2013-6-25,86.8,82.9,80.0,78.5,75.9,73.8,85,80,72,27.12,27.04,9,2,18,0.00
2013-6-26,87.1,83.1,79.9,77.1,75.8,74.2,87,79,70,27.08,26.98,9,2,16,0.03
2013-6-27,86.9,81.9,77.4,77.8,75.7,72.2,92,82,71,27.04,26.92,2,0,12,0.06
2013-6-28,86.5,80.2,73.9,78.2,74.9,70.1,94,84,72,26.93,26.85,12,1,19,2.03
2013-6-29,87.5,82.5,75.9,77.4,76.1,74.3,95,82,70,26.83,26.77,15,1,22,0.04
2013-6-30,86.6,81.2,77.0,78.3,75.4,73.8,92,83,70,26.85,26.78,12,3,26,0.11
2013-7-1,86.7,81.9,75.0,78.5,76.2,72.5,92,83,76,26.89,26.81,16,3,25,0.20
2013-7-2,86.8,82.5,75.8,79.0,77.1,73.6,95,84,77,26.90,26.80,13,1,18,0.01
2013-7-3,86.5,81.9,77.4,78.1,76.0,73.0,89,83,75,26.92,26.84,11,2,25,0.18
2013-7-4,87.2,83.5,76.9,77.9,75.9,72.3,90,78,72,26.90,26.82,10,2,19,0.01
2013-7-5,84.9,81.1,76.7,77.7,75.7,73.8,93,84,78,26.85,26.77,7,1,20,0.72
2013-7-6,86.0,82.2,78.9,77.5,75.5,73.8,88,80,72,26.80,26.69,7,2,19,0.13
2013-7-7,86.1,83.0,80.3,77.4,75.6,74.2,84,79,73,26.74,26.63,14,4,18,0.00
2013-7-8,86.3,82.7,80.2,76.1,74.5,72.5,84,77,69,26.74,26.63,11,1,15,0.05
2013-7-9,85.1,80.6,75.7,75.2,73.5,70.8,90,79,68,26.67,26.57,6,0,16,0.16
2013-7-10,83.4,77.9,71.0,76.9,73.6,68.9,96,87,80,26.57,26.47,9,1,19,2.27
2013-7-11,87.1,82.3,77.9,77.6,75.8,73.7,89,81,70,26.45,26.36,9,1,15,0.00
2013-7-12,87.0,80.7,76.8,76.8,74.5,70.6,94,82,69,26.38,26.29,7,0,18,0.00
2013-7-13,84.5,75.5,72.1,76.4,72.7,70.5,97,91,74,26.36,26.21,5,0,16,2.00
2013-7-14,87.2,78.3,71.9,76.5,73.4,70.1,96,86,67,26.38,26.28,8,1,16,0.87
2013-7-15,85.6,79.5,72.7,77.0,73.8,71.1,96,84,70,26.36,26.27,11,2,16,0.11
2013-7-16,82.4,78.2,73.3,74.4,72.3,69.8,92,83,72,26.37,26.26,11,3,24,0.30
2013-7-17,79.8,76.9,72.7,75.6,72.9,70.8,95,88,80,26.34,26.25,8,1,18,1.59
2013-7-18,81.5,75.7,71.8,77.2,73.3,69.6,96,93,86,26.31,26.15,5,0,19,0.90
2013-7-19,86.3,79.7,73.3,78.9,75.8,72.0,97,89,76,26.21,26.14,6,1,17,0.01
2013-7-20,85.4,81.5,77.1,78.8,76.8,72.6,90,86,80,26.18,26.09,8,1,19,0.00
2013-7-21,87.1,81.0,76.5,79.2,76.5,72.9,94,86,77,26.17,26.05,9,1,15,0.00
2013-7-22,87.2,82.8,79.0,77.4,76.1,73.0,90,81,71,26.17,26.05,10,1,17,0.00
2013-7-23,88.2,82.6,76.6,78.4,76.2,74.3,93,82,69,26.14,26.05,13,1,20,0.00
2013-7-24,92.1,84.2,77.9,78.1,74.4,69.1,90,74,53,26.08,25.85,9,1,19,0.00
2013-7-25,91.6,83.9,75.8,76.6,74.7,72.2,92,75,59,25.84,25.69,9,2,16,0.00
2013-7-26,91.4,82.2,76.7,76.8,75.6,73.4,93,81,60,25.79,25.66,7,1,16,0.22
2013-7-27,86.1,79.4,76.4,77.9,75.6,73.4,94,89,75,25.72,25.59,7,0,22,0.13
2013-7-28,84.7,79.9,75.7,77.9,75.6,72.5,94,87,78,25.75,25.61,0,0,13,0.63
2013-7-29,87.4,82.3,75.8,79.0,76.7,73.6,94,84,74,25.77,25.58,7,1,18,0.19
2013-7-30,87.3,82.9,72.7,79.5,77.2,69.9,95,84,75,25.56,25.35,6,1,14,0.45
2013-7-31,87.6,84.2,81.2,78.3,76.4,73.8,86,78,70,25.38,25.23,9,1,16,0.00
2013-8-1,86.8,83.1,80.5,76.7,75.1,73.7,82,77,68,25.33,25.18,12,2,16,0.00
2013-8-2,87.2,80.4,73.8,77.5,74.4,70.0,94,83,70,25.27,25.13,11,0,24,0.51
2013-8-3,85.7,77.4,71.1,78.5,74.6,68.6,95,91,78,25.28,25.17,5,0,29,0.96
2013-8-4,89.7,80.9,75.2,78.9,75.6,72.8,95,85,68,25.24,25.16,8,0,20,0.02
2013-8-5,87.8,80.5,76.8,78.9,75.9,72.7,93,86,72,25.23,25.12,7,1,12,0.41
2013-8-6,87.9,81.6,76.4,79.1,75.7,72.6,95,83,72,25.21,25.05,6,0,11,0.00
2013-8-7,87.0,83.0,78.1,78.1,76.1,73.3,89,80,72,25.14,25.07,6,1,17,0.00
2013-8-8,88.3,84.6,82.1,78.4,76.2,73.4,82,76,66,25.19,25.07,11,1,19,0.00
2013-8-9,86.6,82.3,78.3,77.4,75.0,71.4,89,79,69,25.17,25.05,9,2,19,0.16
2013-8-10,88.6,84.5,81.2,78.1,76.6,74.8,84,78,70,25.19,25.05,10,2,17,0.00
2013-8-11,88.1,84.7,82.0,78.7,77.0,75.7,83,78,73,25.15,25.08,7,1,14,0.00
2013-8-12,87.8,83.5,81.1,77.9,75.6,73.6,85,78,69,25.16,25.05,7,1,16,0.11
2013-8-13,88.3,84.5,81.2,77.4,76.4,75.2,84,77,69,25.09,25.00,8,1,15,0.00
2013-8-14,88.7,84.3,81.2,77.6,75.8,74.6,84,76,69,25.13,24.98,10,1,16,0.00
2013-8-15,84.7,80.3,74.9,77.0,75.7,72.4,95,86,77,25.15,25.05,7,0,21,1.59
2013-8-16,88.3,83.7,79.0,79.5,77.8,75.9,92,83,75,25.14,25.06,10,1,14,0.00
2013-8-17,88.5,85.0,82.3,80.0,78.1,76.2,85,80,73,25.20,25.03,9,1,17,0.00
2013-8-18,88.2,84.3,81.1,79.3,77.3,75.0,85,80,74,25.17,25.06,8,1,21,0.08
2013-8-19,88.8,84.7,82.3,78.9,77.4,76.0,84,79,72,25.14,25.05,9,1,19,0.00
2013-8-20,88.0,84.4,80.8,78.0,76.6,74.1,84,78,68,25.10,24.94,13,1,16,0.00
2013-8-21,87.6,83.7,80.4,79.9,77.6,75.1,89,82,76,25.05,24.90,12,2,20,0.11
2013-8-22,88.1,84.1,77.7,79.8,77.3,73.7,92,81,74,25.03,24.95,11,1,16,0.13
2013-8-23,88.0,83.7,81.4,78.8,76.6,74.8,85,80,69,25.02,24.83,12,1,15,0.01
2013-8-24,88.3,83.9,77.1,78.3,76.1,72.0,91,78,70,25.07,24.92,8,1,15,0.09
2013-8-25,84.3,80.4,74.5,77.1,75.4,72.0,94,85,74,25.12,24.96,7,0,12,0.13
2013-8-26,86.6,80.7,75.2,77.1,74.5,71.4,91,82,72,25.09,24.95,7,1,17,0.07
2013-8-27,82.8,77.8,73.8,76.0,73.0,69.6,92,86,69,24.98,24.88,0,0,12,0.25
2013-8-28,86.3,81.2,76.3,76.4,74.6,72.5,92,81,68,24.99,24.88,6,1,13,0.01
2013-8-29,87.1,81.2,74.1,78.5,75.4,71.9,93,83,73,24.95,24.88,7,0,13,0.01
2013-8-30,88.5,82.8,76.1,77.5,75.1,72.4,93,78,60,24.96,24.81,7,1,16,0.00
2013-8-31,87.8,80.5,74.6,77.6,74.8,71.6,93,84,71,24.87,24.80,5,0,13,0.04
2013-9-1,86.6,79.9,74.8,78.8,75.2,72.9,96,86,75,24.87,24.78,4,0,14,0.01
2013-9-2,88.9,78.9,74.7,78.7,74.8,71.0,95,88,71,24.91,24.80,2,0,14,0.00
2013-9-3,88.2,80.7,73.0,78.7,75.4,71.3,95,85,71,24.93,24.80,3,0,12,0.01
2013-9-4,83.0,82.3,81.4,78.3,76.8,75.2,86,84,80,24.90,24.83,2,0,9,0.00
2013-9-10,86.4,83.8,81.6,77.1,75.7,74.9,82,77,72,23.39,23.33,6,3,16,0.00
2013-9-11,81.8,80.3,74.0,76.7,74.6,70.4,93,83,77,23.30,22.96,6,1,14,0.01
2013-9-12,83.5,80.5,77.0,77.4,75.5,73.4,90,85,80,22.98,22.50,6,0,8,0.02
2013-9-13,87.1,81.6,75.1,77.6,75.1,72.9,95,81,67,30.23,19.84,5,0,11,0.00
2013-9-14,87.9,83.0,76.9,77.3,75.3,73.9,92,78,65,32.38,24.15,8,0,11,0.00
2013-9-15,85.1,81.6,77.9,78.6,76.1,71.1,90,84,77,32.38,22.90,13,0,17,0.22
2013-9-16,85.2,81.3,78.4,78.3,75.7,72.6,90,84,75,23.45,22.41,8,1,20,0.53
2013-9-17,81.3,79.9,76.0,77.0,75.2,73.1,94,86,80,22.66,21.51,11,1,14,0.51
2013-9-18,85.1,80.5,75.8,77.5,75.0,72.4,93,84,76,22.54,22.04,5,0,9,0.12
2013-9-19,87.0,80.4,74.8,77.2,74.4,71.4,93,83,72,25.30,20.80,9,1,14,0.18
2013-9-20,85.6,81.5,77.9,73.4,71.4,69.1,85,72,60,25.30,20.19,10,1,16,0.00
2013-9-21,86.3,81.8,78.6,75.1,72.9,70.8,80,75,69,27.61,20.03,6,1,11,0.00
2013-9-22,88.9,82.1,76.5,77.9,75.9,73.6,94,82,65,27.61,20.06,11,1,16,0.20
2013-9-23,86.6,80.2,75.4,78.5,76.2,71.9,94,88,73,24.67,24.57,9,0,28,0.80
2013-9-24,90.2,80.8,75.1,80.3,75.9,71.9,96,86,66,24.68,24.61,7,1,18,0.03
2013-9-25,87.8,81.8,77.0,77.9,74.9,71.7,88,80,67,24.66,24.59,5,1,16,0.01
2013-9-26,86.9,79.9,76.3,78.8,76.1,74.1,94,89,76,24.64,24.57,8,1,18,1.41
2013-9-27,86.8,80.4,74.9,76.4,73.7,71.6,94,81,61,24.69,24.56,16,2,17,0.01
2013-9-28,86.0,79.4,73.2,75.5,72.9,70.9,94,81,68,24.72,24.61,8,1,19,0.59
2013-9-29,85.2,81.3,75.8,72.4,70.9,69.0,84,71,64,24.74,24.64,7,1,11,0.00
2013-9-30,85.6,81.4,75.1,73.3,71.5,69.5,85,72,64,24.79,24.65,6,1,10,0.00
2013-10-1,85.6,82.5,79.4,75.1,72.9,71.0,79,73,69,24.83,24.72,8,1,14,0.00
2013-10-2,85.1,82.2,80.5,74.6,73.3,72.4,81,75,68,24.83,24.73,11,2,15,0.00
2013-10-3,84.7,81.9,80.1,75.2,73.7,72.1,82,77,71,24.86,24.73,7,2,13,0.00
2013-10-4,85.4,82.0,78.7,73.6,72.3,70.0,80,73,66,24.85,24.76,7,1,12,0.00
2013-10-5,86.1,80.6,72.9,74.9,71.8,69.2,90,75,65,24.82,24.75,5,1,11,0.00
2013-10-6,85.7,81.5,76.7,75.0,73.0,71.0,88,76,66,24.78,24.69,5,0,10,0.11
2013-10-7,88.4,78.8,73.6,76.8,72.5,69.7,93,82,62,24.73,24.66,10,1,24,0.10
2013-10-8,88.0,80.0,75.4,77.5,74.4,70.6,95,84,65,24.73,24.64,5,0,11,0.09
2013-10-9,83.9,77.6,71.9,75.5,72.5,69.1,92,85,74,24.79,24.68,7,1,14,0.00
2013-10-10,85.4,79.6,72.6,74.6,71.9,69.4,92,78,65,24.82,24.73,11,1,19,0.01
2013-10-11,84.4,78.8,71.0,71.7,68.7,66.7,89,72,61,24.82,24.73,6,1,14,0.00
2013-10-12,84.7,78.1,69.4,70.6,68.4,65.4,91,73,59,24.84,24.74,6,1,12,0.00
2013-10-13,84.2,79.0,73.0,71.1,67.8,64.8,89,70,54,24.83,24.74,7,1,15,0.00
2013-10-14,84.4,78.3,70.9,71.5,68.8,66.7,87,73,62,24.80,24.72,7,1,14,0.00
2013-10-15,84.5,78.7,71.8,72.8,70.3,68.6,91,76,65,24.77,24.69,7,1,12,0.00
2013-10-16,83.7,78.4,73.3,72.2,69.7,67.9,90,75,65,24.76,24.69,7,0,10,0.02
2013-10-17,84.2,79.3,72.2,72.7,71.2,68.9,91,77,67,29.72,24.68,7,1,10,0.00
2013-10-18,85.5,80.5,73.1,74.1,72.0,69.5,90,76,68,29.72,29.62,7,1,12,0.00
2013-10-19,86.5,82.0,77.9,75.5,73.0,71.2,82,75,65,29.69,29.62,7,1,14,0.00
2013-10-20,85.5,81.3,77.5,77.1,75.0,73.5,89,82,74,29.72,29.59,7,0,10,0.00
2013-10-21,87.2,82.4,77.9,76.9,75.6,73.5,90,80,70,29.73,29.66,10,1,15,0.11
2013-10-22,88.0,82.3,77.0,78.1,75.6,73.1,89,81,67,29.69,29.61,9,2,17,0.00
2013-10-23,87.2,80.4,76.3,75.6,73.1,68.9,92,79,63,29.68,29.54,7,0,18,0.00
2013-10-24,80.2,76.8,73.0,69.0,66.0,62.5,79,70,60,29.75,29.62,8,1,16,0.00
2013-10-25,81.6,77.0,70.0,67.0,64.7,62.9,81,66,57,29.83,29.71,9,2,22,0.00
2013-10-26,81.8,77.7,71.2,66.9,63.9,62.0,73,63,57,29.83,29.73,5,1,15,0.00
2013-10-27,81.3,74.7,67.4,66.3,63.3,60.2,78,68,58,29.81,29.67,7,1,11,0.00
2013-10-28,83.2,78.5,75.2,67.8,65.4,63.1,70,64,53,29.85,29.72,9,1,14,0.00
2013-10-29,83.2,79.2,73.2,70.2,67.7,65.5,80,68,62,29.87,29.75,11,2,16,0.00
2013-10-30,82.5,79.2,76.9,69.7,67.7,65.7,73,68,60,29.85,29.76,9,2,15,0.00
2013-10-31,84.0,79.8,75.1,72.8,70.9,67.2,84,75,67,29.79,29.72,7,2,14,0.04
2013-11-1,85.4,81.0,78.6,75.3,72.9,71.1,81,77,72,29.77,29.63,7,1,14,0.00
2013-11-2,87.4,78.9,71.6,72.9,70.3,67.1,94,77,52,29.68,29.54,5,0,17,0.00
2013-11-3,80.7,74.9,68.5,66.4,63.9,61.7,84,69,58,29.74,29.59,11,3,22,0.00
2013-11-4,79.9,76.8,73.2,68.5,64.8,58.8,83,67,51,29.74,29.67,21,4,23,0.08
2013-11-5,80.9,78.6,76.8,71.6,69.1,66.2,82,73,66,29.74,29.68,12,4,21,0.01
2013-11-6,82.4,78.8,76.3,70.7,69.4,67.7,77,73,63,29.74,29.67,12,3,20,0.00
2013-11-7,83.9,76.5,70.5,72.6,69.8,67.4,91,80,67,29.70,29.62,6,1,13,0.00
2013-11-8,82.9,76.5,71.8,72.5,70.3,67.7,91,82,66,29.72,29.62,11,2,22,0.54
2013-11-9,78.7,76.1,73.1,72.6,71.3,70.5,93,86,80,29.76,29.67,14,3,20,1.07
2013-11-10,81.4,78.7,77.3,72.2,70.5,68.1,82,76,73,29.76,29.69,8,2,16,0.00
2013-11-11,81.3,78.4,76.6,71.4,69.1,66.9,79,73,69,29.77,29.70,9,2,15,0.00
2013-11-12,82.3,77.9,71.5,70.6,68.5,66.8,88,73,63,29.73,29.65,6,1,13,0.00
2013-11-13,75.9,72.3,70.1,67.2,63.8,57.9,85,75,65,29.82,29.64,23,5,28,0.04
2013-11-14,75.6,72.6,70.3,63.1,59.1,56.4,70,63,57,29.81,29.73,12,3,24,0.00
2013-11-15,80.0,76.9,73.6,69.0,66.9,62.6,76,71,66,29.77,29.70,13,4,19,0.00
2013-11-16,79.8,78.0,72.1,72.2,69.8,67.5,89,76,70,29.76,29.68,8,2,16,0.13
2013-11-17,82.7,79.4,77.7,73.1,71.1,69.1,83,76,69,29.75,29.67,7,1,14,0.00
2013-11-18,82.4,77.7,73.6,73.0,71.2,70.2,91,81,69,29.72,29.60,4,0,10,0.04
2013-11-19,82.4,75.2,72.4,73.5,70.9,69.2,92,87,72,29.63,29.54,3,0,16,0.01
2013-11-20,82.9,75.9,70.5,74.5,71.7,68.6,95,87,71,29.73,29.57,2,0,10,0.06
2013-11-21,78.9,75.5,71.5,74.5,71.7,69.5,96,88,80,29.78,29.69,9,2,18,2.86
2013-11-22,80.0,77.8,76.4,72.1,70.5,68.9,82,79,73,29.78,29.72,10,3,18,0.00
2013-11-23,80.2,77.5,74.0,71.7,70.6,68.8,86,79,73,29.73,29.63,9,2,13,0.01
2013-11-24,79.7,73.5,68.6,69.6,67.5,64.1,92,82,66,29.78,29.63,18,2,24,0.50
2013-11-25,74.3,73.1,72.1,68.8,65.1,61.0,85,76,68,29.78,29.69,13,5,21,0.03
2013-11-26,81.4,77.4,72.6,74.6,72.5,68.7,91,85,79,29.68,29.53,14,3,21,0.12
2013-11-27,78.0,71.5,59.4,74.4,65.2,53.2,95,82,59,29.71,29.46,10,2,24,0.65
2013-11-28,73.2,62.8,48.4,61.4,53.7,45.0,88,73,59,29.81,29.63,11,3,20,0.00
2013-11-29,76.1,71.2,62.0,64.1,60.2,57.1,85,69,60,29.81,29.72,10,2,21,0.00
2013-11-30,74.9,70.6,62.3,68.7,63.5,59.3,92,79,67,29.79,29.70,11,1,21,0.53
2013-12-1,77.9,70.5,64.1,69.3,66.0,60.7,95,86,73,29.69,29.59,6,0,12,1.37
2013-12-2,72.8,67.6,63.5,66.9,63.9,60.8,96,88,71,29.57,29.47,7,0,16,0.08
2013-12-3,77.6,69.7,61.1,65.6,63.2,58.9,94,81,61,29.63,29.48,1,0,8,0.00
2013-12-4,80.4,73.2,65.8,69.4,66.2,63.4,93,80,67,29.74,29.57,6,0,13,0.00
2013-12-5,81.2,77.0,73.1,72.1,69.3,66.1,81,77,73,29.78,29.65,8,1,17,0.00
2013-12-6,80.8,77.6,75.1,70.8,69.5,67.3,82,77,69,29.82,29.69,10,2,17,0.00
2013-12-7,81.8,76.6,69.7,71.8,69.5,66.3,90,79,69,29.83,29.75,7,1,13,0.01
2013-12-8,81.4,77.4,70.8,71.4,69.5,67.1,91,77,69,29.81,29.74,7,2,19,0.04
2013-12-9,81.7,78.4,76.3,70.9,69.1,67.1,80,74,63,29.80,29.73,10,1,14,0.00
2013-12-10,82.0,78.1,74.0,73.2,71.2,69.5,89,80,72,29.79,29.71,7,1,12,0.00
2013-12-11,81.3,75.9,70.8,73.8,70.8,68.9,94,85,74,29.81,29.72,5,0,9,0.01
2013-12-12,78.0,72.6,69.4,70.3,66.5,60.7,94,82,69,29.80,29.72,12,2,22,0.00
2013-12-13,76.8,73.4,70.6,68.7,64.0,59.1,86,73,66,29.77,29.69,9,3,20,0.09
2013-12-14,80.5,77.3,73.0,72.5,70.8,68.4,86,81,74,29.70,29.63,8,3,17,0.01
2013-12-15,82.9,76.9,71.4,74.2,71.6,67.9,92,84,72,29.70,29.58,7,1,20,0.06
2013-12-16,72.6,68.1,62.7,67.5,61.3,58.4,89,79,69,29.73,29.64,8,1,13,0.00
2013-12-17,76.8,68.1,59.8,65.4,59.9,57.0,91,76,62,29.76,29.62,8,1,15,0.00
2013-12-18,75.6,66.9,61.4,60.5,58.3,56.7,89,75,57,29.78,29.64,10,1,16,0.00
2013-12-19,76.7,70.1,59.4,63.9,60.3,56.3,90,72,60,29.78,29.66,7,2,13,0.00
2013-12-20,80.3,76.8,74.0,70.1,67.6,63.6,78,73,69,29.78,29.67,7,2,15,0.00
2013-12-21,81.1,78.0,76.5,72.6,71.3,69.2,85,80,75,29.75,29.67,9,2,18,0.00
2013-12-22,81.7,78.7,77.0,73.2,72.1,70.7,85,81,74,29.79,29.68,11,3,20,0.00
2013-12-23,82.0,77.9,72.4,73.5,71.9,68.9,90,82,75,29.78,29.72,12,2,19,0.00
2013-12-24,81.4,72.5,68.2,72.5,67.5,62.4,95,85,69,29.74,29.68,9,1,18,0.00
2013-12-25,75.9,73.1,71.0,67.4,65.8,64.3,87,78,73,29.74,29.67,10,3,23,3.13
2013-12-26,78.1,75.4,73.5,70.2,68.9,66.9,83,80,77,29.72,29.63,7,2,16,0.00
2013-12-27,79.7,76.4,74.9,71.4,69.3,68.1,82,79,75,29.73,29.63,9,3,16,0.00
2013-12-28,79.1,76.6,75.0,72.2,70.4,67.9,89,82,77,29.71,29.62,12,2,18,0.02
2013-12-29,80.4,77.6,74.7,73.9,72.6,71.5,93,85,80,29.61,29.53,11,2,20,0.00
2013-12-30,77.2,72.8,68.6,72.5,69.3,65.1,95,89,80,29.69,29.56,7,1,13,0.00
2013-12-31,78.0,72.7,67.7,68.1,64.8,62.8,89,77,68,29.76,29.63,10,2,19,0.01
2014-1-1,79.3,76.0,73.9,73.1,70.3,64.6,91,83,73,29.73,29.62,8,2,16,0.35
2014-1-2,84.3,77.8,73.5,72.1,69.4,66.8,88,76,57,29.61,29.48,10,2,17,0.00